Weather History for Marathon, FL

Change the Weather History Date:

Wednesday, December 5, 2012

  Actual Average Record
Temperature  
Mean Temperature 76 °F 73 °F  
Max Temperature 82 °F 78 °F 83 °F (2013)
Min Temperature 70 °F 69 °F 62 °F (2010)
Degree Days  
Heating Degree Days 0 0  
Month to date heating degree days 0 0  
Since 1 July heating degree days 1 1  
Cooling Degree Days 11 9  
Month to date cooling degree days 53 45  
Year to date cooling degree days 5038 4809  
Growing Degree Days 24 (Base 50)    
Moisture  
Dew Point 63 °F    
Average Humidity 66    
Maximum Humidity 79    
Minimum Humidity 52    
Precipitation  
Precipitation 0.06 in 0.07 in 1.15 in (2003)
Month to date precipitation 0.13 0.33  
Year to date precipitation 44.21 44.48  
Snow  
Snow 0.00 in - - ()
Month to date snowfall 0.0  
Since 1 July snowfall 0.0  
Snow Depth 0.00 in    
Sea Level Pressure  
Sea Level Pressure 30.07 in    
Wind  
Wind Speed 7 mph (ENE)    
Max Wind Speed 15 mph    
Max Gust Speed 18 mph    
Visibility 10 miles    
Events Rain    
T = Trace of Precipitation, MM = Missing Value Source: NWS Daily Summary

Daily Weather History Graph

Daily Weather History Graph

Search for Another Location

Airport:

Trip Planner

Search our weather history database for the weather conditions in past years. The results will help you decide how hot, cold, wet, or windy it might be!

Date:

Astronomy

Dec. 05, 2012 Rise Set
Actual Time 6:54 AM EST 5:35 PM EST
Civil Twilight 6:30 AM EST 6:00 PM EST
Nautical Twilight 6:01 AM EST 6:28 PM EST
Astronomical Twilight 5:34 AM EST 6:56 PM EST
Moon 11:52 PM EST (12/5) 11:45 AM EST (12/5)
Length of Visible Light 11h 29m
Length of Day
10h 40m
Waning Gibbous, 60% of the Moon is Illuminated
Dec 5
Waning Gibbous
Dec 6
Last Quarter
Dec 13
New
Dec 20
First Quarter
Dec 28
Full

Hourly Weather History & Observations

Time (EST) Temp. Dew Point Humidity Pressure Visibility Wind Dir Wind Speed Gust Speed Precip Events Conditions
12:29 AM 71.6 °F 64.4 °F 78% 30.13 in 10.0 mi East 5.8 mph - 0.05 in Rain Light Rain
12:38 AM 71.6 °F 64.4 °F 78% 30.12 in 10.0 mi ENE 8.1 mph - 0.05 in   Mostly Cloudy
12:53 AM 72.0 °F 64.0 °F 76% 30.12 in 10.0 mi ENE 9.2 mph - 0.05 in   Scattered Clouds
1:24 AM 71.6 °F 64.4 °F 78% 30.12 in 8.0 mi ENE 6.9 mph - 0.03 in Rain Light Rain
1:34 AM 71.6 °F 64.4 °F 78% 30.11 in 10.0 mi ENE 11.5 mph - 0.03 in   Overcast
1:53 AM 71.1 °F 64.9 °F 81% 30.11 in 10.0 mi NE 11.5 mph - 0.03 in   Overcast
2:53 AM 71.1 °F 64.0 °F 78% 30.10 in 10.0 mi ENE 13.8 mph - N/A   Overcast
3:53 AM 71.1 °F 64.0 °F 78% 30.08 in 10.0 mi NE 12.7 mph - 0.00 in   Overcast
4:53 AM 71.1 °F 64.0 °F 78% 30.07 in 10.0 mi NE 9.2 mph - N/A   Overcast
5:53 AM 71.1 °F 64.0 °F 78% 30.08 in 10.0 mi NE 8.1 mph - N/A   Overcast
6:53 AM 73.0 °F 61.0 °F 66% 30.09 in 10.0 mi East 5.8 mph - 0.00 in   Scattered Clouds
7:53 AM 73.9 °F 60.1 °F 62% 30.10 in 10.0 mi East 5.8 mph - N/A   Mostly Cloudy
9:53 AM 75.9 °F 59.0 °F 56% 30.12 in 10.0 mi East 9.2 mph - N/A   Mostly Cloudy
10:53 AM 77.0 °F 59.0 °F 54% 30.12 in 10.0 mi East 8.1 mph - N/A   Mostly Cloudy
11:53 AM 78.1 °F 60.1 °F 54% 30.10 in 10.0 mi East 5.8 mph - N/A   Partly Cloudy
12:53 PM 78.1 °F 60.1 °F 54% 30.06 in 10.0 mi East 5.8 mph - N/A   Overcast
1:53 PM 78.1 °F 60.1 °F 54% 30.04 in 10.0 mi East 6.9 mph - N/A   Overcast
3:53 PM 77.0 °F 59.0 °F 54% 30.02 in 10.0 mi East 8.1 mph - N/A   Mostly Cloudy
4:53 PM 75.0 °F 63.0 °F 66% 30.02 in 10.0 mi NE 8.1 mph - N/A   Partly Cloudy
5:53 PM 73.9 °F 64.0 °F 71% 30.01 in 10.0 mi NE 6.9 mph - N/A   Clear
6:53 PM 73.0 °F 64.0 °F 73% 30.02 in 10.0 mi ENE 5.8 mph - N/A   Clear
7:53 PM 73.0 °F 63.0 °F 71% 30.03 in 10.0 mi ENE 6.9 mph - N/A   Clear
8:53 PM 73.0 °F 63.0 °F 71% 30.03 in 10.0 mi ENE 6.9 mph - N/A   Clear
9:53 PM 72.0 °F 63.0 °F 73% 30.03 in 10.0 mi ENE 4.6 mph - N/A   Clear
10:53 PM 70.0 °F 62.1 °F 76% 30.01 in 10.0 mi Calm Calm - N/A   Partly Cloudy
11:53 PM 70.0 °F 63.0 °F 78% 30.01 in 10.0 mi ENE 3.5 mph - N/A   Clear